Flag for Netherlands Weather past 2 weeks in Haarlem, Netherlands

Now
64 °F

Fog.


Feels Like: 64 °F
Forecast: 59 / 62 °F
Wind: 2 mph from North

Location: Amsterdam Schiphol Airport

Current Time: Sep 20, 2014 at 10:22:33 AM

Latest Report: Sep 20, 2014 at 9:55 AM


Visibility: 2 mi

Pressure: 29.92 "Hg

Humidity: 100%

Dew point: 64 °F

Location of HaarlemLocation

Historic Weather in Haarlem — Graph

°F

Haarlem temperature yesterday

Maximum temperature yesterday: 75 °F (at 3:55 PM)
Minimum temperature yesterday: 59 °F (at 2:55 AM)
Average temperature yesterday: 66 °F

Past Weeks' High & Low Weather Summary

 TemperatureHumidityPressure
High77 °F (Sep 17, 3:25 PM)100% (Sep 6, 4:25 AM)30.30 "Hg (Sep 6, 4:25 AM)
Low50 °F (Sep 8, 5:25 AM)49% (Sep 10, 2:25 PM)29.80 "Hg (Sep 18, 2:25 PM)
Average63 °F84%30.03 "Hg
* Reported Sep 5 8:25 AM — Sep 20 8:55 AM, Haarlem, Weather by CustomWeather, © 2014

Note: Actual official high and low records may vary slightly from our data, if they occured in-between our weather recording intervals... More about our weather records

Advertising

Haarlem weather history for previous 24 hours

 ConditionsComfort  
Time TempWeatherWind HumidityBarometerVisibility
8:55 AM
Sep 20
63 °FMild.1 mph100%29.92 "Hg1 mi
8:25 AM61 °FCool.2 mph100%29.92 "Hg1 mi
7:55 AM59 °FCool.2 mph100%29.92 "Hg1 mi
7:25 AM59 °FFog.3 mph100%29.92 "Hg1 mi
6:55 AM59 °FFog.1 mph100%29.92 "Hg0 mi
6:25 AM59 °FFog.1 mph100%29.92 "Hg1 mi
5:55 AM59 °FFog.2 mph100%29.92 "Hg1 mi
5:25 AM59 °FFog.1 mph100%29.89 "Hg1 mi
4:55 AM59 °FFog.1 mph100%29.89 "Hg2 mi
4:25 AM59 °FFog.2 mph100%29.89 "Hg2 mi
3:55 AM59 °FFog.2 mph100%29.89 "Hg2 mi
3:25 AM59 °FFog.No wind100%29.89 "Hg2 mi
2:55 AM61 °FFog.No wind100%29.89 "Hg2 mi
1:55 AM63 °FFog.1 mph94%29.89 "Hg4 mi
1:25 AM64 °FFog.1 mph100%29.89 "Hg4 mi
12:55 AM64 °FFog.2 mph100%29.92 "Hg4 mi
12:25 AM64 °FClear.2 mph94%29.92 "Hg4 mi
11:55 PM
Sep 19
64 °FClear.1 mph100%29.92 "Hg4 mi
11:25 PM64 °FClear.2 mph100%29.92 "Hg4 mi
10:55 PM64 °FClear.2 mph94%29.92 "Hg4 mi
10:25 PM64 °FClear.2 mph94%29.89 "Hg4 mi
9:55 PM64 °FClear.1 mph94%29.89 "Hg4 mi
9:25 PM64 °FClear.2 mph94%29.89 "Hg5 mi
8:55 PM64 °FClear.3 mph94%29.89 "Hg5 mi
8:25 PM66 °FClear.5 mph88%29.89 "Hg6 mi
7:55 PM66 °FPassing clouds.6 mph88%29.86 "Hg6 mi
7:25 PM68 °FPassing clouds.8 mph88%29.86 "HgN/A
6:55 PM70 °FScattered clouds.9 mph83%29.86 "HgN/A
6:25 PM70 °FScattered clouds.8 mph83%29.86 "HgN/A
5:55 PM72 °FPartly sunny.6 mph78%29.86 "HgN/A
5:25 PM72 °FScattered clouds.8 mph78%29.86 "HgN/A
4:55 PM73 °FScattered clouds.7 mph74%29.86 "HgN/A
4:25 PM73 °FPassing clouds.7 mph74%29.86 "HgN/A
3:55 PM75 °FPassing clouds.2 mph65%29.86 "HgN/A
3:25 PM73 °FPassing clouds.5 mph69%29.86 "HgN/A
2:55 PM73 °FPassing clouds.2 mph69%29.86 "HgN/A
2:25 PM73 °FPassing clouds.2 mph74%29.86 "HgN/A
1:55 PM72 °FPassing clouds.3 mph73%29.86 "HgN/A
1:25 PM72 °FPassing clouds.3 mph78%29.86 "HgN/A
12:55 PM70 °FPassing clouds.5 mph83%29.86 "HgN/A
12:25 PM70 °FPassing clouds.7 mph83%29.86 "HgN/A
11:55 AM68 °FPassing clouds.3 mph83%29.86 "Hg6 mi
11:25 AM68 °FScattered clouds.5 mph83%29.86 "Hg4 mi
10:55 AM66 °FPassing clouds.5 mph88%29.86 "Hg4 mi
10:25 AM64 °FFog.6 mph94%29.86 "Hg3 mi
Weather by CustomWeather, © 2014

See weather overviewHow to use our weather pages